Back to catalog

STARLINK-36236

AliveCommunicationsVLEO
NORAD 67078·PAYLOAD·🇺🇸 United States

Launched Dec 14, 2025 from Vandenberg Space Force Base

Loading…

Next Passes (next 24 hours)

TLE

FreshSource: CelesTrak SupGP

Epoch: Sep 14, 2026, 21:14 UTC

1 67078C 25298D   26257.88520833  .00073044  00000+0  61217-2 0  2576
2 67078  69.9997 257.5525 0003823 265.5051 103.1997 14.98289481    15

Track STARLINK-36236 in real time with AllMySat

Download on the App Store